Location: Unspecified
(46.0725°N, 13.7344°E)
Time: 13:58:38
(UTC+01:00)

Cosmos 2058 - Pass Details

Date: 30 October 2019
Orbit: 562 x 584 km, 82.5° (Epoch: 20 November)

Event Time Altitude Azimuth Distance (km) Brightness Sun altitude
Rises 18:55:29 0° 337° (NNW) 2,812 6.8 -21.5°
Reaches altitude 10° 18:58:08 10° 320° (NW) 1,904 6.1 -21.9°
Maximum altitude 19:01:12 20° 273° (W) 1,361 5.7 -22.5°
Drops below altitude 10° 19:04:15 10° 226° (SW) 1,883 6.1 -23.0°
Sets 19:06:51 0° 209° (SSW) 2,772 6.7 -23.4°
